[[{"header":{"parameterUnit":"m.s-1","parameterCategory":1,"la1":30.2991,"la2":30.254,"lo1":-89.0895,"lo2":-89.0444,"dy":0.0017,"dx":0.0017,"nx":28,"ny":28,"refTime":"2024-03-05T03:00:00:Z","depth":0,"parameterNumber":2,"parameterNumberName":"U-component_of_WINDS"},"data":[0,0,0,0,0,0,0,0,0,0,0,0,0,0,0,0,0,0,0,0,0,0,0,0,0,0,0,0,0,0,0,0,0,0,0,0,0,0,0,0,0,0,0,0,0,0,0,0,0,0,0,0,0,0,0,0,0,0,-5.8601,-5.8604,0,-5.8872,-5.8876,-5.8879,-5.8862,-5.8858,-5.8854,-5.8851,-5.9128,-5.9138,-5.9149,0,0,0,0,0,0,0,0,0,0,0,0,0,-5.8069,-5.8079,-5.86,-5.8604,-5.8607,-5.8872,-5.8876,-5.8879,-5.8863,-5.8858,-5.8853,-5.8849,-5.9124,-5.9137,-5.915,0,0,0,0,0,0,0,0,0,0,0,0,0,-5.8316,-5.8082,-5.86,-5.8631,-5.8636,-5.8871,-5.8876,-5.888,-5.8864,-5.8858,-5.8852,-5.8847,-5.912,-5.9136,-5.9152,-5.9373,0,0,-5.9203,-5.921,0,0,0,0,0,0,0,0,-5.8302,-5.8336,-5.8623,-5.8629,-5.8636,-5.8827,-5.879,-5.9046,-5.8866,-5.8778,-5.8851,-5.8844,-5.9032,-5.9056,-5.912,-5.9386,-5.9398,-5.9204,-5.9214,-5.9221,-5.9226,0,0,0,0,0,0,0,-5.8285,-5.8324,-5.8708,-5.8627,-5.8635,-5.8632,-5.8661,-5.8838,-5.8935,-5.8785,-5.8784,-5.8817,-5.9035,-5.9104,-5.9126,-5.9402,-5.9204,-5.9218,-5.9229,-5.9235,-5.9868,-5.9875,0,0,0,0,0,0,-5.8261,-5.831,-5.8699,-5.8716,-5.8451,-5.8647,-5.8678,-5.8772,-5.8933,-5.8952,-5.8822,-5.8815,-5.9078,-5.9107,-5.9136,-5.9408,-5.9221,-5.9237,-5.9246,-5.9862,-5.987,-5.9877,0,0,0,0,0,0,-5.825,-5.8296,-5.8688,-5.8513,-5.8563,-5.8662,-5.8767,-5.878,-5.8849,-5.8961,-5.8978,-5.8874,-5.9075,-5.9112,-5.9315,-5.9417,-5.9244,-5.9259,-5.9853,-5.9864,-5.9874,-5.9952,0,0,0,0,0,0,-5.8234,-5.8292,-5.8376,-5.8515,-5.8572,-5.8863,-5.8773,-5.879,-5.8878,-5.8872,-5.9015,-5.9033,-5.9073,-5.9291,-5.9332,-5.9437,-5.9272,-5.9845,-5.9858,-5.987,-5.9941,-5.9964,-5.9983,0,0,0,0,0,-5.8216,-5.8386,-5.838,-5.8427,-5.8679,-5.8869,-5.8901,-5.8945,-5.8886,-5.8973,-5.9045,-5.9028,-5.94,-5.9312,-5.9358,-5.9469,-5.9838,-5.9854,-5.9869,-5.9931,-5.9959,-5.9983,0,0,0,0,0,0,-5.8254,-5.8404,-5.84,-5.862,-5.8732,-5.8865,-5.8975,-5.8973,-5.9103,-5.9091,-5.914,-5.9172,-5.9377,-5.9443,-5.9343,-5.9694,-5.9612,-5.9637,-5.9643,-5.967,-5.9691,-5.9671,-5.9286,0,0,0,0,0,-5.8288,-5.8429,-5.8553,-5.8736,-5.8792,-5.8875,-5.8958,-5.8983,-5.91,-5.9147,-5.9234,-5.9349,-5.9492,-5.9585,-5.9722,-5.9951,-5.9983,-6.0051,-6.0072,-6.0089,-6.011,-6.024,-6.0273,-5.9928,-5.9928,-5.9928,0,0,-5.836,-5.846,-5.8545,-5.8746,-5.8835,-5.8982,-5.8914,-5.907,-5.918,-5.9171,-5.9368,-5.9437,-5.9569,-5.9787,-5.9887,-5.9848,-6.0214,-6.0109,-6.0122,-6.0134,-6.026,-6.0292,-6.0321,-5.9939,-5.9937,-5.9935,0,0,-5.8565,-5.8654,-5.8818,-5.891,-5.9048,-5.9102,-5.9142,-5.9278,-5.9323,-5.9523,-5.9521,-5.9652,-5.9897,-5.9992,-6.0072,-6.0321,-6.0311,-6.0364,-6.0475,-6.0601,-6.0628,-6.0652,-6.0743,-6.0775,-6.0385,-6.0385,-6.0385,0,-5.8637,-5.8857,-5.8902,-5.9062,-5.9151,-5.9153,-5.932,-5.9407,-5.9582,-5.9645,-5.96,-5.991,-5.9998,-6.024,-6.0302,-6.0366,-6.0414,-6.0347,-6.0621,-6.0646,-6.0669,-6.0756,-6.079,-6.0391,-6.039,-6.039,-6.0389,0,-5.8939,-5.9092,-5.9208,-5.938,-5.9483,-5.9645,-5.9716,-5.9815,-5.9833,-5.9892,-6.0098,-6.0205,-6.0366,-6.0426,-6.0443,-6.0672,-6.0644,-6.061,-6.0528,-6.0707,-6.0789,-6.0823,-6.0399,-6.0397,-6.0395,-6.0394,0,0,-5.9172,-5.9371,-5.9413,-5.9493,-5.9647,-5.9767,-5.9931,-6.009,-6.0176,-6.0298,-6.0438,-6.0648,-6.0618,-6.071,-6.0738,-6.0849,-6.1043,-6.0801,-6.0805,-6.0844,-6.1305,-6.1331,-6.1368,-6.1038,-6.1044,-6.105,-6.1295,0,-5.9395,-5.9686,-5.9734,-5.999,-6.0134,-6.014,-6.0284,-6.0395,-6.0457,-6.0588,-6.0656,-6.0805,-6.0754,-6.081,-6.092,-6.0995,-6.1136,-6.0979,-6.117,-6.1176,-6.1137,-6.1411,-6.1438,-6.1664,-6.1327,-6.1333,-6.1337,0,-5.9691,-5.9825,-6.0095,-6.0235,-6.0297,-6.0425,-6.0578,-6.0703,-6.0831,-6.0868,-6.0974,-6.0991,-6.1164,-6.1075,-6.1315,-6.1207,-6.1289,-6.1339,-6.1349,-6.1368,-6.1267,-6.1439,-6.1736,-6.1771,-6.1388,-6.1384,-6.138,0,-5.9837,-6.0083,-6.0278,-6.0346,-6.0513,-6.0604,-6.0678,-6.08,-6.0895,-6.1028,-6.1091,-6.1242,-6.1325,-6.1443,-6.1502,-6.1431,-6.1739,-6.1655,-6.1776,-6.1775,-6.184,-6.1835,-6.2155,-6.1892,-6.1891,-6.1891,-6.189,0,-6.008,-6.0245,-6.0346,-6.0466,-6.0653,-6.0709,-6.0893,-6.0965,-6.1075,-6.121,-6.1225,-6.1351,-6.1421,-6.1559,-6.1606,-6.1799,-6.1836,-6.1873,-6.1883,-6.1872,-6.1867,-6.1925,-6.1911,-6.19,-6.1898,-6.1896,-6.1894,0,-6.0272,-6.0346,-6.056,-6.0703,-6.0743,-6.0875,-6.0997,-6.1115,-6.1178,-6.135,-6.1393,-6.1492,-6.1656,-6.1727,-6.1927,-6.1959,-6.2181,-6.2179,-6.2138,-6.2142,-6.226,-6.2248,-6.2629,-6.2683,-6.2383,-6.2386,-6.2388,0,-6.0422,-6.0551,-6.0709,-6.0801,-6.0879,-6.1027,-6.1124,-6.1186,-6.1287,-6.1446,-6.1545,-6.1709,-6.1844,-6.2105,-6.2195,-6.235,-6.2353,-6.2476,-6.2376,-6.2362,-6.2357,-6.2349,-6.2363,-6.2494,-6.2497,-6.2499,-6.2501,0,-6.0682,-6.0714,-6.0853,-6.1009,-6.1126,-6.125,-6.1372,-6.1447,-6.1528,-6.1641,-6.181,-6.1914,-6.2122,-6.2285,-6.2447,-6.2524,-6.2528,-6.2533,-6.2569,-6.2559,-6.253,-6.2549,-6.2189,-6.2523,-6.2521,-6.2519,-6.2518,-6.2517,-6.0859,-6.0975,-6.1106,-6.1263,-6.1362,-6.1477,-6.1596,-6.1676,-6.1817,-6.1992,-6.202,-6.22,-6.233,-6.2547,-6.2631,-6.2774,-6.2744,-6.2796,-6.281,-6.2822,-6.283,-6.2508,-6.2804,-6.2803,-6.2803,-6.2802,-6.2802,0,-6.112,-6.1206,-6.135,-6.1522,-6.1647,-6.1641,-6.1778,-6.1882,-6.2041,-6.2162,-6.2296,-6.2492,-6.2652,-6.2757,-6.292,-6.3015,-6.3021,-6.3055,-6.3049,-6.3068,-6.2847,-6.28,-6.3048,-6.3048,-6.3048,-6.3048,-6.3048,-6.3048,-6.1271,-6.1468,-6.1516,-6.1764,-6.1849,-6.2027,-6.2106,-6.2213,-6.231,-6.2529,-6.2663,-6.2731,-6.2847,-6.3019,-6.3167,-6.3194,-6.3254,-6.3291,-6.3316,-6.3108,-6.3082,-6.3058,-6.3014,-6.3303,-6.3303,-6.3525,-6.3527,-6.3529]},{"header":{"parameterUnit":"m.s-1","parameterCategory":1,"la1":30.2991,"la2":30.254,"lo1":-89.0895,"lo2":-89.0444,"dy":0.0017,"dx":0.0017,"nx":28,"ny":28,"refTime":"2024-03-05T03:00:00:Z","depth":0,"parameterNumber":3,"parameterNumberName":"V-component_of_WINDS"},"data":[0,0,0,0,0,0,0,0,0,0,0,0,0,0,0,0,0,0,0,0,0,0,0,0,0,0,0,0,0,0,0,0,0,0,0,0,0,0,0,0,0,0,0,0,0,0,0,0,0,0,0,0,0,0,0,0,0,0,4.4508,4.4509,0,4.4625,4.4626,4.4628,4.4663,4.4662,4.4662,4.4661,4.4773,4.4777,4.478,0,0,0,0,0,0,0,0,0,0,0,0,0,4.4308,4.4311,4.4507,4.4509,4.451,4.4625,4.4626,4.4628,4.4663,4.4662,4.4661,4.4661,4.4772,4.4776,4.4781,0,0,0,0,0,0,0,0,0,0,0,0,0,4.4406,4.4312,4.4507,4.4542,4.4546,4.4624,4.4626,4.4628,4.4663,4.4662,4.4661,4.466,4.4771,4.4776,4.4781,4.4831,0,0,4.4797,4.48,0,0,0,0,0,0,0,0,4.4401,4.4414,4.4535,4.454,4.4545,4.4629,4.4597,4.4696,4.4663,4.4618,4.4661,4.466,4.4725,4.4734,4.4758,4.4836,4.4841,4.4798,4.4801,4.4803,4.4805,0,0,0,0,0,0,0,4.4394,4.4409,4.4554,4.4537,4.4543,4.455,4.4563,4.4616,4.4675,4.4622,4.4625,4.4639,4.4728,4.4753,4.4761,4.4843,4.4798,4.4802,4.4806,4.4808,4.497,4.4971,0,0,0,0,0,0,4.4382,4.4403,4.455,4.4557,4.4469,4.4554,4.4569,4.4602,4.4675,4.4685,4.464,4.464,4.4744,4.4755,4.4765,4.4829,4.4803,4.4808,4.4811,4.4969,4.497,4.4971,0,0,0,0,0,0,4.4378,4.4395,4.4545,4.4481,4.4501,4.4558,4.4596,4.4605,4.463,4.4688,4.4698,4.4655,4.4744,4.4757,4.4815,4.4834,4.4811,4.4815,4.4967,4.4969,4.4971,4.4958,0,0,0,0,0,0,4.4372,4.4393,4.4414,4.4481,4.4504,4.4595,4.4597,4.4608,4.464,4.4642,4.4705,4.4714,4.4744,4.4807,4.4821,4.4841,4.482,4.4966,4.4968,4.497,4.4957,4.4959,4.4961,0,0,0,0,0,4.4365,4.4403,4.4415,4.4432,4.4532,4.4596,4.4609,4.4645,4.4642,4.4662,4.47,4.4712,4.483,4.4813,4.4828,4.485,4.4965,4.4968,4.497,4.4956,4.4958,4.4961,0,0,0,0,0,0,4.4333,4.4413,4.4426,4.4488,4.4536,4.4602,4.4629,4.4646,4.4694,4.4693,4.4734,4.4747,4.4802,4.4832,4.4812,4.4903,4.4898,4.4903,4.4882,4.4885,4.4886,4.4878,4.4824,0,0,0,0,0,4.4334,4.4382,4.4448,4.4496,4.452,4.4571,4.46,4.4624,4.4674,4.4693,4.4735,4.478,4.4828,4.4858,4.4905,4.4962,4.4976,4.4984,4.4986,4.4988,4.4991,4.5025,4.503,4.498,4.498,4.498,0,0,4.4334,4.4384,4.4411,4.4491,4.4531,4.4579,4.4587,4.4636,4.4671,4.47,4.4758,4.479,4.4844,4.4902,4.493,4.4928,4.5009,4.4991,4.4991,4.4995,4.5028,4.5033,4.5037,4.4982,4.4981,4.4981,0,0,4.4361,4.4403,4.4449,4.449,4.4551,4.4585,4.4596,4.4661,4.4685,4.4745,4.4768,4.4809,4.489,4.4928,4.4957,4.5001,4.5015,4.5015,4.5024,4.5057,4.5061,4.5064,4.508,4.5085,4.5019,4.5019,4.5019,0,4.4353,4.4428,4.447,4.4519,4.4554,4.4586,4.4632,4.4668,4.474,4.4763,4.4761,4.4865,4.4903,4.4971,4.4983,4.5006,4.5019,4.5008,4.5057,4.5061,4.5065,4.5081,4.5087,4.5019,4.5019,4.5019,4.5019,0,4.4416,4.4468,4.4497,4.457,4.4608,4.4655,4.4703,4.4736,4.4757,4.4791,4.4852,4.49,4.4958,4.4976,4.4995,4.5047,4.5045,4.505,4.5045,4.5069,4.5084,4.5091,4.5019,4.5019,4.5019,4.5019,0,0,4.4422,4.4521,4.4531,4.4566,4.4637,4.4677,4.4726,4.4786,4.4813,4.4862,4.4904,4.4973,4.4979,4.5013,4.5038,4.5066,4.5099,4.5068,4.507,4.5072,4.5159,4.5155,4.5161,4.5109,4.511,4.5112,4.5155,0,4.4458,4.455,4.459,4.4662,4.4711,4.4743,4.4786,4.4833,4.4867,4.4911,4.4947,4.4996,4.5,4.5021,4.5051,4.5089,4.5117,4.5086,4.5146,4.5148,4.5132,4.5169,4.5164,4.5203,4.5161,4.5162,4.5163,0,4.451,4.4564,4.4642,4.4711,4.4732,4.477,4.4829,4.4872,4.4927,4.4949,4.4989,4.5013,4.5065,4.5058,4.5129,4.5107,4.5134,4.5157,4.5159,4.5165,4.5156,4.5176,4.5216,4.5221,4.5173,4.5172,4.5171,0,4.4508,4.4599,4.4659,4.4687,4.4768,4.4794,4.4828,4.4883,4.4917,4.4968,4.499,4.5045,4.5075,4.5116,4.5155,4.5146,4.5222,4.5218,4.5241,4.524,4.5254,4.5253,4.5299,4.5273,4.5273,4.5273,4.5272,0,4.4543,4.4589,4.4659,4.4695,4.4748,4.4794,4.4845,4.4881,4.493,4.4973,4.5003,4.5042,4.5091,4.5136,4.5166,4.5221,4.5233,4.5252,4.5259,4.5249,4.5247,4.5266,4.5265,4.5274,4.5274,4.5274,4.5273,0,4.4548,4.4597,4.4664,4.4736,4.4756,4.4792,4.4853,4.4889,4.4925,4.4979,4.4994,4.505,4.5105,4.5148,4.5218,4.5238,4.5296,4.5304,4.5278,4.5282,4.5302,4.53,4.5362,4.5372,4.534,4.534,4.534,0,4.4566,4.4604,4.4682,4.4714,4.475,4.4801,4.4837,4.4884,4.492,4.4987,4.5015,4.5073,4.5121,4.5207,4.5252,4.5307,4.5316,4.5334,4.5324,4.5313,4.5316,4.5313,4.5317,4.5335,4.5335,4.5335,4.5335,0,4.4594,4.4617,4.467,4.4732,4.4775,4.4825,4.4875,4.49,4.4956,4.4994,4.5053,4.5091,4.5165,4.5222,4.5281,4.5315,4.5334,4.5339,4.5347,4.5336,4.532,4.5329,4.5281,4.5336,4.5336,4.5336,4.5336,4.5336,4.4607,4.4642,4.4704,4.4761,4.4805,4.4853,4.4891,4.4934,4.4984,4.505,4.5074,4.5134,4.5189,4.5272,4.5306,4.5352,4.5353,4.5365,4.5368,4.537,4.5369,4.5314,4.5363,4.5363,4.5363,4.5363,4.5363,0,4.4636,4.4678,4.4731,4.4803,4.4849,4.4867,4.4925,4.4961,4.5014,4.5065,4.5114,4.5182,4.5238,4.5289,4.5347,4.5374,4.5385,4.5388,4.5386,4.5393,4.5365,4.5352,4.5379,4.5379,4.5379,4.5379,4.5379,4.5379,4.4657,4.4718,4.4749,4.4833,4.4874,4.4936,4.4967,4.501,4.5052,4.5127,4.5175,4.521,4.5261,4.5324,4.5375,4.5389,4.5408,4.5409,4.5425,4.5397,4.5395,4.5393,4.5381,4.5414,4.5414,4.545,4.545,4.545]}]]